Reflectivity
4 6 -15 15 9 -10 8 9 8 -19 -5 -12 -5 -20 -20 -19 -20 -20 -10 -20 -20 -20 -20 -20 -4 19 31 22 15 15 15 1 -20 -20 -20 -20 -20 -20 -20 -20 -20 -20 -20 -20 -20 -20 -20
9 3 -6 13 11 -14 10 9 -2 8 -20 -10 -20 -20 -20 -20 -20 -20 -20 -20 -20 -20 -20 -20 25 27 -1 13 13 20 12 7 -20 -20 -20 -20 -20 -20 -20 -20 -20 -20 -20 -20 -20 -20 -20
4 16 -17 9 15 4 -7 4 5 -2 -20 -20 -20 -20 -20 -20 -20 -20 -20 -20 -20 -20 -20 13 30 40 -20 30 19 24 29 25 -20 -20 -20 -20 -20 -20 -20 -20 -20 -20 -20 -20 -20 -20 -20
9 13 4 1 13 13 -20 -7 -19 0 -20 -20 -20 -20 -20 -15 -20 -20 -19 -20 -20 -16 18 26 29 29 31 29 28 26 32 30 -17 -20 -20 -20 -20 -20 -20 -20 -20 -20 -20 -20 -20 -20 -20
-6 17 12 10 6 -5 14 -18 -20 -20 -20 -20 -20 -20 -20 5 10 -20 6 25 3 27 24 30 29 8 28 32 24 28 27 32 -10 -20 -20 -20 -20 -20 -20 -20 -20 -20 -20 -20 -20 -20 -20
-20 3 12 10 15 8 6 14 -20 -20 -20 -20 -20 -20 -17 -19 13 -1 -6 21 18 17 17 25 6 5 24 29 24 24 18 -10 -4 -20 -20 -20 -20 -20 -20 -20 -20 -20 -20 -20 -20 -20 -20
-20 -20 -5 14 18 12 2 9 10 -4 -20 -20 -20 -20 -20 -20 -20 -20 -7 12 10 28 24 27 26 7 10 -3 -5 12 -19 -9 -20 -20 -20 -20 -20 -20 -20 -20 -20 -20 -20 -20 -20 -20 -20
6 -20 -20 -20 12 19 14 6 1 -2 -1 -20 -20 -20 -20 -20 -20 -20 -10 -12 -6 -4 22 11 -14 -17 -18 -20 -14 -20 -20 -20 -20 -20 -20 -20 -20 -20 -20 -20 -20 -20 -20 -20 -20 -20 -20
10 -10 -20 -20 -20 17 18 3 5 1 -18 -20 -20 -20 -20 -20 -20 -20 -20 -20 -16 -14 -20 -20 -15 -20 6 3 -17 -20 -20 -20 -20 -20 -20 -20 -20 -20 -20 -20 -20 -20 -20 -20 -20 -20 -20
7 3 -20 -20 -20 -18 17 17 -3 -2 -20 -20 -20 -20 -20 -20 -20 -20 -20 -20 -20 -20 -20 -20 -9 -20 -4 -16 -6 -16 -18 -20 -20 -20 -20 -20 -20 -20 -20 -20 -20 -20 -20 -20 -20 -20 -20
8 11 -10 -20 -20 -20 16 18 15 -7 -20 -20 -20 -20 -20 -20 -20 -20 -20 -20 -20 -20 -20 -20 -20 -20 -20 -20 -20 -7 -18 -20 -20 -20 -20 -20 -20 -20 -20 -20 -20 -20 -20 -20 -20 -20 -8
-6 -3 7 1 -20 1 15 18 17 10 -20 -20 -20 -20 -20 -20 -20 -20 -20 -20 -20 -20 -8 -9 -20 -20 -20 -20 -20 -20 -20 -20 -20 -20 -20 -20 -20 -20 -20 -20 -20 -20 -20 -20 -20 -20 -20
4 2 -1 2 -20 4 10 12 17 2 -20 -20 -20 -20 -20 -20 -20 -20 -20 -20 -20 -8 -20 -20 -20 -20 -20 -20 -20 -20 -20 -20 -20 -20 -20 -20 -20 -20 -20 -19 -20 -20 -20 -20 -20 -20 -20
-5 4 -20 8 -20 14 -18 5 11 0 -20 -20 -20 -20 -20 -20 -20 -20 -20 -20 -20 -20 -20 -20 -20 -20 -20 -20 -20 -20 -20 -9 -20 -20 -20 -20 -20 -20 -20 -17 1 -20 -6 -17 -20 -20 -20
-6 -3 -5 -9 -20 -13 12 -17 9 -20 -20 -20 -20 -20 -20 -20 -20 -20 -20 -20 -20 -20 -20 -20 -19 -20 -20 -20 -20 -20 -20 -20 -20 -20 -20 -17 -18 -20 -20 -20 -20 -20 -16 -5 -20 -20 -7
-20 -17 -2 -6 -20 -9 -7 -20 -20 -20 -20 -20 -20 -20 -20 -20 -20 -20 -20 -20 -20 -20 -20 -20 2 -20 -20 -20 -20 -20 -20 -20 -20 -20 -20 -20 -20 -20 -20 -20 -20 -20 -20 -10 -9 -13 -13
-2 -20 -6 -7 -20 -20 -20 -20 -20 -20 -20 -20 -20 -20 -20 -20 -20 -20 -20 -20 -20 -20 -20 -20 -20 -20 -20 -20 -20 -20 -20 -20 -20 -20 -20 -19 -9 -20 -20 -20 -2 -14 -0 -17 -15 -20 -4
-20 2 -20 -2 -20 -20 -20 -20 -20 -20 -20 -20 -20 -20 -20 -20 -20 -20 -20 -20 -20 -20 -20 -20 -20 -20 -20 -20 -20 -20 -20 -20 -20 -20 -20 -20 -20 -20 -20 -20 -20 -20 -20 -20 -11 -6 -20
-20 -20 -20 -20 -20 -20 -20 -20 -20 -20 -15 -20 -20 -20 -20 -20 -20 -20 -20 -20 -20 -20 -20 -20 -20 -20 -20 -20 -20 -20 -20 -20 -20 -20 -20 -20 -20 -20 -20 -20 -20 -20 -20 -20 -20 -20 -20
-19 -20 -20 -20 -20 -20 -20 -20 -20 -20 -17 -20 -20 -19 -20 -20 -20 -20 -20 -20 -20 -20 -20 -20 -20 -20 -20 -20 -20 -20 -20 -20 -20 -20 -20 -20 -20 -20 -20 -20 -20 -20 -20 -20 -20 -20 -20
-7 -20 -20 -20 -20 -20 -20 -20 -20 -20 -18 -20 -20 -20 -20 -20 -20 -20 -20 -20 -20 -20 -20 -20 -20 -20 -20 -20 -20 -20 -20 -20 -20 -20 -20 -20 -20 -20 -20 -20 -20 -20 -20 -20 -20 -20 -20
9 -20 -20 -20 -20 -20 -20 -20 -20 -20 -20 -19 -20 -20 -20 -20 -20 -20 -20 -20 -20 -20 -20 -20 -20 -20 -20 -20 -20 -20 -20 -20 -20 -20 -20 -20 -20 -20 -20 -20 -20 -20 -20 -20 -20 -20 -20
-20 -20 -20 -20 -20 -20 -20 -20 -20 -20 -20 -20 -20 -20 -16 -20 -20 -20 -20 -20 -20 -20 -20 -20 -20 -20 -20 -20 -20 -20 -20 -20 -20 -20 -20 -20 -20 -20 -20 -20 -20 -20 -20 -20 -20 -20 -20
-2 -20 -20 -20 -20 -20 -20 -20 -20 -20 -20 -20 -20 -20 -20 -19 -20 -20 -20 -20 -20 -20 -20 -20 -20 -20 -20 -20 -20 -20 -20 -20 -20 -20 -20 -20 -20 -20 -20 -20 -20 -20 -20 -20 -20 -20 -20
4 3 -20 -20 -20 -20 -20 -20 -20 -20 -20 -20 -20 -20 -20 -20 -20 -20 -20 -20 -20 -20 -20 -20 -20 -20 -20 -20 -20 -20 -20 -20 -20 -20 -20 -20 -20 -20 -20 -20 -20 -20 -20 -20 -20 -20 -20
12 -3 -18 -2 -19 -20 -20 -20 -20 -20 -20 -20 -20 -20 -20 -20 -20 -20 -20 -20 -20 -20 -20 -20 -20 -20 -20 -20 -20 -20 -20 -20 -20 -20 -20 -20 -20 -20 -20 -20 -20 -20 -20 -20 -20 -20 -20
11 12 -4 6 -20 -20 -20 -20 -20 -20 -20 -20 -20 -20 -20 -20 -20 -20 -20 -20 -20 -20 -20 -20 -20 -20 -20 -20 -20 -20 -20 -20 -20 -20 -20 -20 -20 -20 -20 -20 -20 -20 -20 -20 -20 -20 -20
-20 12 12 4 -20 -20 -20 -20 -20 -20 -20 -20 -20 -20 -20 -20 -20 -20 -20 -20 -20 -20 -20 -20 -20 -20 -20 -20 -20 -20 -20 -20 -20 -20 -20 -20 -20 -20 -20 -20 -20 -20 -20 -20 -20 -20 -20
-20 -20 0 -20 -20 -20 -20 -20 -20 -20 -20 -20 -20 -20 -20 -20 -20 -20 -20 -20 -20 -20 -20 -20 -20 -20 -20 -20 -20 -20 -20 -20 -20 -20 -20 -20 -20 -20 -20 -20 -20 -20 -20 -20 -20 -20 -20
Wind_Speed
21 22 24 24 25 27 26 26 23 23 24 23 22 22 22 21 19 15 13 13 12 11 11 13 7 11 1 9 7 9 10 5 4 3 5 5 5 6 6 6 5 3 4 2 2 2 3
22 22 24 25 24 25 26 24 23 23 23 23 22 23 21 20 18 13 9 7 8 10 11 14 15 7 4 9 9 11 8 6 6 0 3 2 3 5 7 7 1 5 5 1 1 2 4
20 21 22 24 24 23 25 24 23 24 23 22 22 24 23 20 17 11 7 7 7 9 10 11 8 6 22 9 7 7 9 5 7 6 6 6 5 3 5 5 2 3 2 6 6 1 1
21 21 22 23 24 23 23 23 23 23 22 22 22 24 23 23 23 26 19 11 11 10 11 11 7 11 9 4 6 13 5 6 3 9 7 4 6 6 4 5 4 3 1 2 3 4 3
21 21 21 21 22 23 22 22 22 22 22 22 22 21 21 19 20 23 25 21 21 21 14 15 8 4 7 8 7 8 4 7 5 7 5 5 3 3 3 2 3 1 2 2 5 3 2
21 21 21 21 21 21 22 22 21 22 22 22 21 17 17 18 12 12 19 21 25 10 9 7 2 4 5 5 4 6 5 3 5 6 4 2 2 3 1 1 2 3 2 1 3 5 5
20 21 21 20 20 20 20 22 22 21 20 20 19 18 15 14 15 7 3 1 4 7 15 12 11 15 8 2 5 1 4 5 2 4 3 1 2 3 2 8 6 6 4 2 5 8 3
19 20 21 21 21 19 19 20 20 20 20 18 18 19 17 13 14 9 8 6 4 3 13 12 13 8 4 3 7 7 3 1 3 5 2 2 7 8 6 3 2 1 3 3 6 3 5
18 19 20 21 21 20 19 19 19 19 19 18 16 18 16 15 13 5 11 6 1 2 4 12 9 7 3 1 8 11 10 5 4 4 3 8 7 5 2 1 2 5 3 5 3 8 7
19 18 19 20 21 20 19 19 18 18 18 17 17 16 15 17 4 4 4 4 1 3 5 10 10 8 6 3 5 6 7 4 3 5 8 7 2 3 1 1 1 3 6 3 4 6 3
18 19 19 20 21 20 20 18 17 17 17 18 16 12 11 9 5 2 4 4 4 3 7 7 6 3 5 6 1 5 3 4 9 5 3 3 5 4 3 4 1 6 5 6 5 5 4
16 19 18 19 20 21 21 20 17 16 16 17 11 11 13 2 1 5 6 7 3 3 7 5 4 4 3 7 4 1 1 1 1 1 1 5 3 3 4 3 2 7 5 7 3 2 3
17 16 18 19 20 20 20 20 19 17 16 13 8 7 6 3 3 5 5 4 5 8 2 4 4 5 10 7 6 5 5 6 3 3 3 4 3 3 1 2 1 2 3 1 2 1 5
17 16 18 19 21 20 21 20 18 17 16 8 6 4 2 3 2 4 2 3 11 0 7 2 2 2 5 6 4 4 3 3 4 3 3 2 1 7 8 3 1 1 1 1 3 3 3
16 17 17 19 20 21 21 20 19 18 16 8 4 2 1 2 3 1 2 8 3 1 1 3 4 2 5 5 1 2 4 3 2 1 3 1 3 4 6 2 1 2 1 2 1 4 2
15 16 16 19 20 21 21 20 19 19 17 11 2 2 1 4 1 3 5 6 4 1 3 4 4 3 4 4 2 1 3 2 3 1 1 2 2 3 4 1 2 2 2 1 2 3 5
15 15 16 18 19 20 20 20 21 20 19 9 3 2 1 2 2 2 4 4 4 2 2 3 3 3 4 3 3 3 4 3 3 4 1 2 2 2 4 7 8 4 3 1 2 3 2
15 15 16 16 18 19 20 19 21 21 21 3 2 3 3 3 4 3 4 5 4 1 1 2 3 3 4 3 3 0 3 4 3 4 2 3 3 3 6 5 3 4 3 4 2 0 4
15 15 15 15 15 17 19 20 20 20 15 4 2 1 2 1 3 3 2 3 4 2 1 2 2 2 3 4 3 2 4 2 3 2 5 2 3 4 0 2 3 3 6 3 3 2 6
14 14 13 14 15 16 18 19 21 20 13 3 2 3 3 3 2 2 3 3 1 3 3 4 4 1 3 2 3 4 4 3 3 2 4 3 4 4 4 3 4 5 4 11 7 4 6
11 12 12 12 14 16 17 18 19 21 12 2 3 1 1 2 3 3 3 2 3 2 4 3 4 1 4 4 2 2 3 3 7 6 3 2 4 5 9 14 14 14 13 11 15 13 8
9 11 11 10 13 15 16 16 19 21 17 3 3 1 3 2 2 2 3 3 3 3 3 5 3 4 3 4 2 4 4 3 1 6 3 6 5 6 8 14 8 11 14 17 18 16 20
9 10 10 8 9 12 13 15 16 20 13 3 1 0 3 2 1 2 1 2 1 2 3 3 2 3 6 4 2 7 6 8 7 3 3 3 2 4 7 7 11 8 6 16 11 13 9
8 9 10 8 6 9 10 12 14 15 12 1 3 3 2 1 3 4 1 1 4 5 4 1 2 4 4 6 9 11 12 10 11 10 7 3 2 3 5 7 3 9 3 1 6 12 13
8 9 9 9 5 6 7 10 13 13 12 3 2 3 3 3 1 5 3 5 5 4 4 5 6 2 5 5 4 6 2 3 8 7 9 7 4 3 2 3 12 10 3 2 1 3 5
9 9 8 8 6 5 6 5 8 10 10 1 3 2 2 3 1 2 4 5 4 5 5 6 4 3 2 2 2 3 4 3 1 3 3 4 6 2 3 3 6 2 4 1 2 6 4
10 9 8 8 7 5 5 5 4 6 8 4 2 3 1 2 3 2 3 2 2 5 3 1 4 4 2 3 3 4 5 1 4 3 6 3 4 10 7 6 9 4 8 4 3 7 5
11 10 10 9 8 7 6 6 5 2 4 4 1 3 2 3 5 4 2 3 1 2 3 1 2 2 2 3 3 4 3 3 2 6 5 8 6 6 5 5 11 7 4 6 3 3 3
11 10 10 9 8 8 8 8 6 4 1 1 3 1 3 3 5 1 4 7 3 1 2 2 0 2 2 1 3 2 3 3 4 5 1 4 7 3 8 8 4 8 4 4 4 3 3
Wind_Direction
8 7 6 12 13 8 9 15 20 11 10 9 13 9 10 11 12 18 26 32 34 32 19 25 31 120 130 67 46 334 323 317 141 236 181 162 183 202 166 128 129 257 121 73 9 1 275
8 10 7 9 14 15 13 17 17 16 13 18 17 12 7 6 1 4 18 29 32 28 30 23 71 359 116 69 339 6 43 353 126 176 86 348 26 39 41 112 236 8 68 292 102 318 311
13 13 9 9 16 19 16 19 16 17 18 18 13 9 7 10 357 351 26 36 41 41 34 38 29 73 61 32 3 12 36 349 320 96 78 37 4 13 112 104 46 91 292 198 214 98 22
11 10 13 9 16 15 23 18 16 17 17 14 16 14 14 19 49 64 51 58 53 60 72 55 70 67 63 340 9 41 56 343 357 95 104 126 68 59 46 118 149 198 148 205 88 143 109
12 15 12 12 13 14 19 22 17 14 17 18 18 21 20 23 33 65 60 66 66 61 46 97 40 58 72 312 36 343 309 138 104 103 104 91 52 97 170 203 135 208 163 238 144 161 77
7 11 11 13 12 15 13 19 21 15 18 21 15 17 16 16 23 51 77 71 60 27 8 51 85 88 28 60 328 308 278 170 105 118 113 77 111 142 184 197 83 148 114 186 262 157 190
13 7 8 11 16 13 13 12 12 17 18 20 11 12 6 10 16 347 272 251 41 57 51 63 64 79 67 286 221 348 347 95 101 247 116 219 201 144 120 39 21 6 355 280 300 49 22
11 9 6 5 10 14 15 13 10 12 15 17 13 357 357 357 349 9 42 60 62 133 81 81 93 86 122 304 79 32 245 88 239 86 117 171 74 53 54 50 345 23 285 276 82 165 272
11 8 6 2 4 9 11 13 11 9 9 12 7 2 355 347 331 66 78 75 145 272 65 51 55 40 349 307 44 18 6 348 46 90 3 63 73 120 149 145 264 202 284 11 348 341 274
11 11 6 1 0 4 7 9 10 8 3 2 2 0 358 338 317 313 60 93 280 328 84 8 21 31 346 348 59 16 354 342 29 68 11 71 120 137 115 320 344 292 33 358 321 35 291
7 6 3 4 358 360 3 4 8 7 359 349 347 353 353 8 323 3 17 331 307 230 67 347 354 291 303 62 144 40 328 335 46 64 289 74 146 175 214 47 302 64 351 301 294 299 324
6 3 3 360 0 357 358 358 0 4 358 354 349 347 328 38 127 9 322 302 248 47 51 17 320 323 77 77 64 217 41 233 63 357 27 99 56 337 357 16 317 340 305 265 223 218 268
1 1 1 359 2 359 354 354 355 359 1 3 18 358 5 329 8 330 332 296 47 52 200 14 356 353 63 50 63 26 47 49 37 72 35 323 174 129 252 187 123 250 300 259 253 277 232
354 359 360 2 1 359 354 353 354 358 360 2 351 308 311 46 339 335 313 27 54 316 67 214 269 311 63 9 63 57 68 68 56 46 97 326 209 184 164 262 168 183 16 70 283 345 317
354 355 3 2 1 358 358 359 358 357 358 345 314 223 152 23 320 270 269 56 89 58 57 345 301 31 119 109 324 315 68 76 63 37 340 257 125 100 189 53 310 190 145 2 12 219 271
356 352 1 1 1 359 360 357 358 353 351 335 289 247 89 328 289 265 61 104 115 306 308 252 21 27 41 43 360 125 129 89 115 117 331 28 265 158 113 82 279 335 121 176 148 275 270
354 355 358 2 360 357 358 357 353 352 346 338 262 323 134 352 273 29 67 75 112 141 267 319 16 55 81 53 42 32 55 121 137 118 46 323 251 145 143 200 168 172 184 167 305 239 282
354 356 356 2 357 358 355 357 355 353 344 296 288 45 354 312 61 30 30 8 306 91 184 287 292 307 353 351 330 77 29 65 70 150 282 86 307 279 238 97 25 139 122 162 244 203 255
349 356 355 358 357 356 357 353 356 357 7 322 355 235 248 343 75 83 148 86 332 295 7 313 309 14 358 341 308 43 22 106 143 251 356 70 249 313 140 80 142 240 175 187 290 359 232
345 351 355 355 358 359 359 355 352 357 359 314 335 22 330 64 315 96 155 105 100 155 303 320 316 305 280 242 137 331 344 129 127 266 42 338 277 243 229 298 337 241 182 190 181 201 254
335 345 351 352 360 0 4 356 355 352 360 359 8 83 5 346 56 42 310 175 167 167 205 221 226 216 353 300 277 193 38 276 175 148 196 233 269 297 275 277 279 278 266 212 206 209 234
320 331 345 348 356 0 2 1 357 356 339 64 5 328 182 74 300 246 157 229 229 147 212 151 230 358 301 286 338 298 357 306 337 166 223 181 263 304 279 267 239 263 252 243 239 225 237
309 319 330 339 350 0 1 1 8 5 357 46 323 214 303 142 171 302 219 100 252 344 186 280 251 281 263 274 218 265 273 282 277 260 270 207 240 354 268 347 309 289 234 236 240 238 239
289 303 314 325 337 355 3 4 9 19 21 10 17 300 315 256 230 212 155 256 234 229 300 343 248 274 19 329 282 253 243 249 252 250 211 273 257 210 272 322 316 239 123 326 220 255 227
277 280 296 312 308 337 356 6 6 15 22 70 19 341 346 282 26 297 218 238 263 229 209 242 268 295 6 307 296 307 192 227 222 204 219 198 244 271 228 257 268 292 186 214 262 307 37
261 264 275 292 291 296 324 349 12 4 6 96 96 302 320 322 226 35 315 243 257 238 229 198 140 60 301 275 303 274 266 331 210 146 345 230 212 272 310 224 258 215 172 161 69 267 123
254 255 254 267 278 256 276 303 334 9 358 325 107 99 272 286 268 157 201 236 235 317 300 105 159 179 189 206 220 239 251 62 259 244 170 185 221 222 236 262 278 181 148 152 154 234 148
246 254 251 249 254 256 240 261 285 319 8 329 255 118 98 292 276 216 236 219 159 242 278 12 1 312 181 219 209 243 210 230 304 253 197 185 182 196 191 228 260 134 84 180 202 157 137
245 242 254 252 254 253 238 230 241 253 178 339 285 269 135 169 252 327 271 277 265 348 316 222 325 315 293 262 305 316 264 218 215 265 359 270 215 235 193 219 190 201 227 174 146 199 287